www.pogodaiklimat.ru

Погода и климат >> Архив погоды >> Беларусь >> Езерище


ПОГОДА в Езерище

  • Прогноз погоды в Езерище
  • Монитор погоды в Езерище

АРХИВ ПОГОДЫ в Езерище

Время (UTC), дата Ветер
(напр.,м/с)
 
Видим.   Явления Облачность Т
(С)
Тd
(С)
f
(%)
Тe
(С)
Тes
(С)
Комфортность P
(гПа)
Po
(гПа)
Тmin
(С)
Tmax
(С)
R
(мм)
R24
(мм)
S
(см)
06 15.08 СЗ 1 4000 м дымка {ливн. осадки, дождь} 10/10 210 м
[St]
+12.8 +12.3 97 +13 +13 1014.0 993.5 +11.2 9
09 15.08 З 1 н/о н/о +16.4 +13.1 81 +17 +31 опасность
простуды
1014.0 993.8
12 15.08 З 1 н/о н/о +18.3 +12.1 67 +20 +31 1015.0 994.9
15 15.08 ЮЗ 2 н/о н/о +19.6 +12.4 63 +22 +24 комфорт 1015.0 995.0
18 15.08 штиль 0 10 км 3/0
[Ac trans]
+13.0 +12.4 96 +12 +12 1015.0 994.5 +20.3
21 15.08 штиль 0 н/о н/о +9.8 +9.8 100 +9 +9 1017.0 996.3
00 16.08 штиль 0 н/о н/о +8.1 +8.1 100 +7 +7 1017.0 996.1
03 16.08 штиль 0 н/о н/о +6.8 +6.8 100 +6 +6 1017.0 996.0 +6.7
06 16.08 штиль 0 10 км 9/0
[Ci fib]
+15.8 +12.9 83 +16 +16 1017.0 996.7 +6.7
09 16.08 СВ 1 н/о н/о +20.1 +10.8 55 +23 +36 комфорт 1016.0 996.0
12 16.08 СВ 1 н/о н/о +20.3 +10.1 52 +23 +34 комфорт 1016.0 996.0
15 16.08 штиль 0 н/о н/о +19.4 +11.9 62 +20 +24 1016.0 996.0
18 16.08 штиль 0 10 км 8/3
[Sc diur, vesp Ac trans Ci fib]
+16.3 +13.2 82 +16 +16 1017.0 996.7 +22.0
21 16.08 штиль 0 н/о н/о +10.7 +10.7 100 +10 +10 1017.0 996.3
00 17.08 штиль 0 н/о н/о +8.3 +8.3 100 +7 +7 1018.0 997.1
03 17.08 штиль 0 н/о н/о +7.4 +7.4 100 +6 +6 1018.0 997.0 +6.7
06 17.08 СВ 1 10 км 3/0
[Ac trans]
+16.1 +12.1 77 +17 +21 1018.0 997.7 +6.7
09 17.08 В 2 н/о н/о +19.4 +10.9 58 +21 +32 комфорт 1017.0 996.9
12 17.08 СВ 2 н/о н/о +19.2 +12.5 65 +21 +30 комфорт 1016.0 996.0
15 17.08 С 2 н/о н/о +18.1 +11.6 66 +19 +21 1015.0 994.9
18 17.08 штиль 0 10 км 9/0
[Ac trans]
+17.0 +13.3 79 +17 +17 1015.0 994.8 +21.9
21 17.08 С 1 н/о н/о +15.9 +12.6 81 +17 +17 1014.0 993.8
00 18.08 СЗ 2 н/о н/о +14.4 +12.9 91 +14 +14 1014.0 993.7
03 18.08 штиль 0 н/о н/о +14.3 +12.8 91 +14 +14 1013.0 992.7 +14.0
06 18.08 СЗ 1 10 км {ливн. осадки} 9/1
[Cb cap Ac trans]
+14.5 +14.0 97 +15 +15 1012.0 991.7 +13.7 0.9
09 18.08 СЗ 3 н/о н/о +20.4 +14.3 68 +23 +32 комфорт 1011.0 991.1
12 18.08 СЗ 2 н/о н/о +22.8 +13.6 56 +26 +35 жарко 1011.0 991.3
15 18.08 СЗ 2 н/о н/о +22.7 +12.6 53 +25 +28 комфорт 1012.0 992.3
18 18.08 штиль 0 10 км ясно +16.2 +14.7 91 +16 +16 1013.0 992.8 +23.9
21 18.08 штиль 0 н/о н/о +11.5 +11.5 100 +11 +11 1014.0 993.4
00 19.08 штиль 0 н/о н/о +10.0 +10.0 100 +9 +9 1015.0 994.3
03 19.08 штиль 0 н/о н/о +9.1 +9.1 100 +8 +8 1015.0 994.2 +8.5
06 19.08 Ю 1 10 км 8/0
[Ac trans Ci fib]
+18.3 +14.2 77 +20 +20 1015.0 994.9 +8.5
09 19.08 Ю 3 н/о н/о +24.4 +15.6 58 +27 +37 жарко 1014.0 994.4
12 19.08 Ю 4 н/о н/о +26.0 +16.8 57 +30 +36 душно 1014.0 994.5
15 19.08 Ю 2 н/о н/о +25.6 +18.5 65 +30 +32 душно 1015.0 995.4
18 19.08 ЮВ 2
{15}
7000 м дымка {гроза, ливн. осадки} 8/3 600 м
[Cb cap Ac trans]
+19.0 +18.7 98 +21 +21 комфорт 1016.0 996.0 +27.1 4
21 19.08 ЮЗ 3 н/о н/о +19.5 +19.2 98 +22 +22 комфорт 1017.0 997.0
00 20.08 З 4
{10}
н/о н/о +18.4 +17.7 96 +19 +19 1018.0 997.9
03 20.08 ЮЗ 1
{10}
н/о н/о +17.2 +17.2 100 +18 +18 1020.0 999.8 +16.8
06 20.08 С 1 8000 м дымка {гроза, ливн. осадки} 9/6 240 м
[Cb cap Ac trans]
+17.8 +17.5 98 +19 +19 1020.0 999.8 +16.8 4
09 20.08 ЮЗ 1 н/о н/о +21.4 +18.2 82 +26 +38 душно 1021.0 1001.0
15 20.08 штиль 0 н/о н/о +21.6 +18.2 81 +26 +29 душно 1023.0 1003.0
18 20.08 штиль 0 10 км {ливн. осадки} 6/0
[Ac trans Ci fib]
+17.5 +17.0 97 +17 +17 1024.0 1003.7 +24.2 0.1
21 20.08 штиль 0 н/о н/о +14.1 +14.1 100 +14 +14 1025.0 1004.4
00 21.08 штиль 0 н/о н/о +13.1 +13.1 100 +12 +12 1025.0 1004.3
03 21.08 ЮВ 1 н/о н/о +12.3 NAN ? +13 +13 1026.0 0.0 +11.7
06 21.08 штиль 0 10 км 10 баллов +17.7 +16.7 94 +18 +18 1025.0 1004.7 +11.7
09 21.08 В 3 н/о н/о +20.2 +19.0 93 +24 +33 комфорт 1023.0 1002.9
12 21.08 В 3 н/о н/о +20.5 +20.2 98 +25 +33 комфорт 1020.0 1000.0
15 21.08 В 3 н/о н/о +21.6 +20.8 95 +27 +29 душно 1017.0 997.2
18 21.08 Ю 3 10 км 10 баллов +23.6 +19.7 79 +29 +29 душно 1015.0 995.3 +23.8 7
21 21.08 ЮЗ 3
{10}
н/о н/о +18.8 +17.1 90 +20 +20 1018.0 997.9
00 22.08 СЗ 3
{11}
н/о н/о +14.5 +14.5 100 +13 +13 1022.0 1001.5
03 22.08 СЗ 3 н/о н/о +14.1 +13.3 95 +13 +13 1024.0 1003.4 +13.9

 

Местоположение метеостанции Езерище (Витебская область, Беларусь): широта 55.84 долгота 29.99 высота над уровнем моря 171 м.

В архиве по умолчанию представлена погода в Езерище за последнюю неделю. Архивные данные за месяц целиком и за предыдущие месяцы, начиная с января 2011 года, Вы можете получить, выбрав интересующий диапазон дат из раскрывающегося списка и нажав кнопку "Ввод!".


*Определитесь, кто Вы:
робот инопланетянин человек

Внимание! Время в таблицах - всемирное. Для получения местного времени необходимо прибавить поправку, которая равна 3 ч.

Смотрите также архив погоды в соседних городах и на ближайших метеорологических станциях:

Погода в Великих Луках (Псковская область, Россия) (69 км)
Погода в Витебске (Витебская область, Беларусь) (73 км)
Погода в Велиже (Смоленская область, Россия) (78 км)
Погода в Полоцке (Витебская область, Беларусь) (87 км)
Погода в Сенно (Витебская область, Беларусь) (115 км)
Погода в Демидове (Смоленская область, Россия) (115 км)
Погода в Пржевальском (Смоленская область, Россия) (121 км)
Погода в Рудне (Смоленская область, Россия) (121 км)
Погода в Торопце (Тверская область, Россия) (124 км)
Погода в Опочке (Псковская область, Россия) (125 км)

Пояснения к столбцам:

Ветер - указаны скорость ветра в м/с - средняя за 10 мин, порывы в срок и между сроками (в фигурных скобках) и направление, откуда дует ветер: С - северный, СВ - северо-восточный, В - восточный, ЮВ - юго-восточный, Ю - южный, ЮЗ - юго-западный, З - западный, СЗ - северо-западный.
Видимость - горизонтальная дальность видимости в метрах или километрах. При видимости от 1 до 10 км при отсутствии осадков обычно наблюдается дымка, при ухудшении видимости до 1 км и менее - туман. В сухую погоду видимость может ухудшаться дымом, пылью или мглою.
Явления - указаны атмосферные явления, наблюдавшиеся в срок или в последний час перед сроком; фигурными скобками обозначены явления, наблюдавшиеся между сроками (за 1-3 часа до срока); квадратными скобками обозначены град или гололедные отложения с указанием их диаметра в мм.
Облачность - указаны через наклонную черту общая и нижняя облачность в баллах и высота нижней границы облаков в метрах; квадратными скобками обозначены формы облаков: Ci - перистые, Cs - перисто-слоистые, Cc - перисто-кучевые, Ac - высококучевые, As - высокослоистые, Sc - слоисто-кучевые, Ns - слоисто-дождевые, Cu - кучевые, Cb - кучево-дождевые. Подробнее классификацию облаков см. в Атласе облаков (PDF).
T - Температура воздуха - температура, измеренная на высоте 2 м над землей.
Td - Температура точки росы - температура, при понижении до которой содержащийся в воздухе водяной пар достигнет насыщения.
f - Относительная влажность воздуха - влажноcть воздуха, измеренная на высоте 2 м над землей.
Te - Эффективная температура - температура, которую ощущает одетый по сезону человек в тени. Характеристика душности погоды. При расчете учитывается влияние влажности воздуха и скорости ветра на теплоощущения человека.
Tes - Эффективная температура на солнце - температура, которую ощущает человек, с поправкой на солнечный нагрев. Характеристика знойности погоды. Зависит от высоты солнца над горизонтом, облачности и скорости ветра. Ночью, в пасмурную погоду, а также при ветре 12 м/с и более поправка равна нулю.
P - Атмосферное давление - приведенное к уровню моря атмосферное давление.
Po - Атмосферное давление - измеренное на уровне метеостанции атмосферное давление.
Tmin - Минимальная температура - минимум температуры воздуха на высоте 2 м над землей.
Tmax - Максимальная температура - максимум температуры воздуха на высоте 2 м над землей.
R - Количество осадков - Количество выпавших осадков за период времени, мм. При наведении курсора мыши на число - период времени, за который выпало указанное количество осадков.
R24 - Количество осадков - Количество выпавших осадков за 24 часа, мм.
S - Снежный покров - Высота снежного покрова, см. При наведении курсора мыши на число - состояние снежного покрова и степень покрытия местности в баллах.